Home   Weather   Bamako   Past weeks

Flag for Mali Past Weather in Bamako, Mali — Yesterday and Last 2 Weeks

Now
95 °F

Passing clouds.


Feels Like: 90 °F
Forecast: N/A
Wind: 5 mph from South

Location: Bamako / Senou

Current Time: Jan 18, 2017 at 4:12:28 pm

Latest Report: Jan 18, 2017 at 3:30 pm


Visibility: N/A

Pressure: 29.80 "Hg

Humidity: 9%

Dew Point: 27 °F

Location of BamakoLocation

Past Weather in Bamako — Graph

°F

Bamako Temperature Yesterday

Maximum temperature yesterday: 91 °F (at 3:00 pm)
Minimum temperature yesterday: 63 °F (at 7:00 am)
Average temperature yesterday: 76 °F

High & Low Weather Summary for the Past Weeks

 TemperatureHumidityPressure
High95 °F (Jan 8, 3:30 pm)64% (Jan 5, 11:30 pm)30.07 "Hg (Jan 5, 11:30 pm)
Low57 °F (Jan 14, 6:30 am)7% (Jan 12, 3:00 pm)29.83 "Hg (Jan 14, 3:00 pm)
Average75 °F23%29.94 "Hg
* Reported Jan 3 3:00 pm — Jan 18 3:00 pm, Bamako, Weather by CustomWeather, © 2017

Note: Actual official high and low records may vary slightly from our data, if they occured in-between our weather recording intervals... More about our weather records

Advertising

Bamako Weather History for the Previous 24 Hours

Scroll right to see more
 ConditionsComfort  
Time TempWeatherWind HumidityBarometerVisibility
3:00 pm
Wed, Jan 18
93 °FPassing clouds.5 mph10%29.83 "HgN/A
2:30 pm93 °FPassing clouds.7 mph9%29.83 "HgN/A
2:00 pm93 °FPassing clouds.7 mph8%29.86 "HgN/A
1:30 pm91 °FPassing clouds.6 mph10%29.86 "HgN/A
1:00 pm90 °FPassing clouds.7 mph11%29.89 "HgN/A
12:30 pm88 °FPassing clouds.7 mph12%29.89 "HgN/A
12:00 pm84 °FPassing clouds.7 mph15%29.92 "HgN/A
11:30 am82 °FPassing clouds.8 mph15%29.92 "HgN/A
11:00 am82 °FSunny.9 mph16%29.95 "Hg10 mi
10:30 am81 °FPassing clouds.10 mph15%29.95 "HgN/A
10:00 am79 °FSunny.10 mph15%29.95 "Hg10 mi
9:30 am77 °FPassing clouds.7 mph18%29.95 "HgN/A
9:00 am73 °FPassing clouds.7 mph23%29.95 "HgN/A
8:30 am72 °FSunny.6 mph25%29.92 "Hg10 mi
8:00 am64 °FSunny.5 mph37%29.92 "Hg10 mi
7:30 am64 °FPassing clouds.3 mph34%29.92 "HgN/A
7:00 am64 °FSunny.6 mph32%29.89 "Hg10 mi
6:30 am64 °FClear.6 mph32%29.89 "Hg10 mi
6:00 am66 °FClear.3 mph30%29.89 "Hg10 mi
5:30 am66 °FClear.6 mph28%29.89 "Hg10 mi
5:00 am68 °FClear.5 mph26%29.89 "Hg10 mi
4:30 am72 °FClear.7 mph20%29.86 "Hg10 mi
4:00 am72 °FClear.9 mph20%29.86 "Hg10 mi
3:30 am72 °FClear.9 mph22%29.86 "Hg10 mi
3:00 am75 °FClear.8 mph15%29.89 "Hg10 mi
2:30 am72 °FClear.6 mph22%29.89 "Hg10 mi
1:30 am64 °FClear.5 mph43%29.89 "Hg10 mi
1:00 am66 °FClear.3 mph43%29.89 "Hg10 mi
12:30 am70 °FClear.2 mph25%29.89 "Hg10 mi
12:00 am70 °FClear.7 mph29%29.89 "Hg10 mi
11:30 pm
Tue, Jan 17
72 °FClear.7 mph27%29.89 "Hg10 mi
11:00 pm72 °FClear.7 mph27%29.92 "Hg10 mi
10:30 pm72 °FClear.7 mph27%29.92 "Hg10 mi
10:00 pm72 °FClear.6 mph25%29.92 "Hg10 mi
9:30 pm73 °FClear.5 mph29%29.92 "Hg10 mi
9:00 pm70 °FClear.6 mph33%29.89 "Hg10 mi
8:30 pm73 °FClear.5 mph31%29.89 "Hg10 mi
8:00 pm72 °FClear.6 mph33%29.89 "Hg10 mi
7:30 pm73 °FClear.5 mph29%29.86 "Hg10 mi
7:00 pm79 °FClear.3 mph21%29.86 "Hg10 mi
6:30 pm84 °FClear.5 mph16%29.83 "Hg10 mi
6:00 pm86 °FSunny.3 mph13%29.83 "Hg10 mi
5:30 pm90 °FSunny.1 mph13%29.83 "Hg10 mi
5:00 pm90 °FSunny.3 mph11%29.83 "Hg10 mi
4:30 pm91 °FSunny.3 mph10%29.83 "Hg10 mi
4:00 pm91 °FSunny.5 mph9%29.83 "Hg10 mi
Weather by CustomWeather, © 2017

See weather overviewHow to use our weather pages